Regional Weather Roundup
Issued by NWS

Home | Current Version | Previous Version | Graphics & Text | Print | Product List | Glossary On
Versions: 1 2 3 4 5 6 7 8 9 10 11 12 13 14 15 16 17 18 19 20 21 22 23 24 25 26 27 28
000
ASUS45 KBOU 230110
RWRCO

WEATHER ROUNDUP FOR COLORADO
NATIONAL WEATHER SERVICE DENVER/BOULDER CO
600 PM MST WED NOV 22 2017

NOTE: "FAIR" INDICATES FEW OR NO CLOUDS BELOW 12000 FEET WITH NO
SIGNIFICANT WEATHER AND/OR OBSTRUCTIONS TO VISIBILITY.

COZ001>005-013-030-031-230200-
...NORTHWEST COLORADO...

CITY           SKY/WX    TMP DP  RH WIND       PRES   REMARKS
CRAIG          CLOUDY    45  37  73 W3        30.41S
HAYDEN         CLOUDY    44  36  73 E10       30.44S
MEEKER         FAIR      43  36  76 CALM      30.44R
RABBIT EARS PA FOG      N/A N/A N/A W10G20    30.53S VSB 1/2
STEAMBOAT SPGS CLOUDY    37  35  90 CALM      30.44S
WALDEN         CLOUDY    41  32  70 SW7       30.46S
$$

COZ006>008-011-230200-
...WEST CENTRAL VALLEYS...

CITY           SKY/WX    TMP DP  RH WIND       PRES   REMARKS
GRAND JUNCTION FAIR      50  30  46 E5        30.39R
MONTROSE       FAIR      47  32  56 SW3       30.44R
EAGLE          CLOUDY    41  33  73 S3        30.49S
RIFLE          FAIR      46  36  68 S5        30.42S
DELTA          FAIR      54  31  42 CALM      30.41R
NUCLA          FAIR      55  32  41 N5        30.44
$$

COZ017>023-064>068-230200-
...SOUTHWEST COLORADO...

CITY           SKY/WX    TMP DP  RH WIND       PRES   REMARKS
DURANGO        FAIR      50  27  40 W5        30.37R
CORTEZ         FAIR      53  30  41 W3        30.36R
PAGOSA SPRINGS FAIR      42  22  46 NW3       30.43R
TELLURIDE      FAIR      46  32  58 CALM      30.54R
WOLF CREEK PAS FAIR      36  27  69 NW9       30.66R
$$

COZ009-010-012-014-032>034-037-058>063-230200-
...CENTRAL COLORADO...

CITY           SKY/WX    TMP DP  RH WIND       PRES   REMARKS
ASPEN          CLOUDY    42  34  73 S6        30.49S
BUENA VISTA    FAIR      45  33  63 NW13      30.45S
COPPER MTN     SNOW      34  32  93 MISG      30.59F VSB 1/4
BERTHOUD PASS  CLOUDY    28  18  64 NW46G62   30.49R WCI  10
COTTONWOOD PAS FAIR      45  34  65 NW12G23   30.52R
GUNNISON       FAIR      46  32  58 NE6       30.48R
KREMMLING      CLOUDY    45  36  70 CALM      30.47F
LEADVILLE      CLOUDY    34  32  92 NW5       30.52F WCI  30
MONARCH PASS   FAIR      32  28  86 NW17G24   30.71S WCI  21
SALIDA         FAIR      51  34  52 NW12G18   30.48S
SUNLIGHT       MOCLDY    34  32  93 N5        30.63S WCI  30
WILKERSON PASS FAIR      34  28  80 N15G30    30.57S WCI  24
$$

COZ069>075-230200-
...SAN LUIS VALLEY/SANGRE DE CRISTO MOUNTAINS...

CITY           SKY/WX    TMP DP  RH WIND       PRES   REMARKS
ALAMOSA        FAIR      48  30  49 NE9       30.40R
DEL NORTE      FAIR      52  30  42 W10       30.43R
LA VETA PASS   FAIR      39  27  60 MISG        N/A
SAGUACHE       FAIR      48  32  53 N9        30.44R
$$

COZ035-036-038>040-230200-
...NORTHERN COLORADO FRONT RANGE...

CITY           SKY/WX    TMP DP  RH WIND       PRES   REMARKS
DENVER INTL AP MOCLDY    54  35  48 W10       30.25R
DMNS CITY PARK   N/A     59  33  37 W5G15     30.26F
AURORA         MOCLDY    56  35  45 W12       30.27R
FRONT RANGE AP MOCLDY    55  37  50 W5        30.27R
ERIE MUNI ARPT FAIR      55  33  42 CALM      30.30R
BOULDER MUN AP FAIR      59  34  38 W3        30.25S
CENTENNIAL     MOCLDY    56  35  45 NW8       30.29R
BROOMFIELD     PTCLDY    59  34  38 W12G17    30.28R
FORT COLLINS   MOCLDY    61  37  41 NW10      30.22F
LONGMONT       FAIR      61  34  37 W12G17    30.25F
$$

COZ041-046-047-076>085-087-088-230200-
...PIKES PEAK/PALMER DIVIDE AND SOUTHERN FOOTHILLS...

CITY           SKY/WX    TMP DP  RH WIND       PRES   REMARKS
COLO. SPRINGS  MOCLDY    53  26  35 N6        30.31R
A. F. ACADEMY  FAIR      51  32  47 N5        30.31R
SCHRIEVER AFB  FAIR      52  23  31 N5        30.31R
CHEYENNE MTN   MOCLDY    57  27  31 NW13      30.28R
ELLICOTT         N/A    N/A N/A N/A CALM      30.29R
FALCON         FAIR      50  28  43 NW6       30.34S
FORT CARSON    FAIR      49  27  41 NW7       30.28R
LIMON          FAIR      41  30  65 N6        30.26R
MONUMENT HILL  FAIR      45  32  61 NW7       30.35R
CANON CITY     FAIR      61  34  36 W9        30.26S
WALSENBURG     FAIR      50  32  50 CALM      30.29R
TRINIDAD       FAIR      48  29  47 W10       30.27R
$$

COZ042>045-048>051-090-091-230200-
...NORTHEAST COLORADO...

CITY           SKY/WX    TMP DP  RH WIND       PRES   REMARKS
GREELEY ARPT   FAIR      50  36  58 N12       30.22S
AKRON          FAIR      52  35  52 N6        30.21R
BURLINGTON     FAIR      47  33  58 W5        30.18R
WRAY           NOT AVBL
YUMA           FAIR      52  34  50 W10       30.17R
STERLING       FAIR      55  39  54 NW9       30.17R
HOLYOKE        FAIR      54  34  47 W8        30.15R
FORT MORGAN    FAIR      61  34  36 NW18G25   30.21R
$$

COZ086-089-092>099-230200-
...SOUTHEAST COLORADO...

CITY           SKY/WX    TMP DP  RH WIND       PRES   REMARKS
PUEBLO         FAIR      49  27  42 NE6       30.22R
LA JUNTA       FAIR      54  31  41 NW6       30.20R
LAMAR          FAIR      47  25  42 S8        30.16R
SPRINGFIELD      N/A     43  27  53 W3        30.22R
$$




USA.gov is the U.S. government's official web portal to all federal, state and local government web resources and services.